Volver al catálogo

STARLINK-4416

ActivoComunicacionesSSO
NORAD 53212·PAYLOAD·🇺🇸 United States

Lanzado Jul 22, 2022 desde Vandenberg Space Force Base

Loading…

Próximos Pases (próximas 24 horas)

TLE

ActualizadoSource: CelesTrak SupGP

Época: Sep 14, 2026, 21:33 UTC

1 53212C 22084Z   26257.89840278 -.00014922  00000+0 -46332-3 0  2574
2 53212  97.2831 313.7656 0001710  78.5114   3.8047 15.33438848    11

Sigue STARLINK-4416 en tiempo real con AllMySat

Download on the App Store